Flag for U.S.A. Weather past 2 weeks in Vevay, Indiana, U.S.A.

Now
59 °F

Sunny.


Feels Like: 60 °F
Forecast: 41 / 67 °F
Wind: 3 mph from Southwest

Location: Cincinnati / Northern Kentucky International Airport

Current Time: Oct 24, 2014 at 12:59:36 PM

Latest Report: Oct 24, 2014 at 11:52 AM


Visibility: 10 mi

Pressure: 30.11 "Hg

Humidity: 54%

Dew point: 42 °F

Location of VevayLocation

Historic Weather in Vevay — Graph

°F

Vevay temperature yesterday

Maximum temperature yesterday: 61 °F (at 3:52 PM)
Minimum temperature yesterday: 39 °F (at 7:52 AM)
Average temperature yesterday: 50 °F

Past Weeks' High & Low Weather Summary

 TemperatureHumidityPressure
High76 °F (Oct 13, 3:52 PM)94% (Oct 14, 3:01 PM)30.30 "Hg (Oct 14, 3:01 PM)
Low39 °F (Oct 23, 7:52 AM)41% (Oct 17, 3:52 PM)29.57 "Hg (Oct 14, 11:52 AM)
Average55 °F75%29.98 "Hg
* Reported Oct 9 11:52 AM — Oct 24 11:52 AM, Vevay, Weather by CustomWeather, © 2014

Note: Actual official high and low records may vary slightly from our data, if they occured in-between our weather recording intervals... More about our weather records

Advertising

Vevay weather history for previous 24 hours

 ConditionsComfort  
Time TempWeatherWind HumidityBarometerVisibility
11:52 AM
Oct 24
59 °FSunny.3 mph54%30.11 "Hg10 mi
10:52 AM57 °FPassing clouds.5 mph60%30.12 "Hg10 mi
9:52 AM50 °FPassing clouds.No wind83%30.12 "Hg8 mi
8:52 AM40 °FFog.No wind93%30.13 "Hg6 mi
7:52 AM42 °FPassing clouds.No wind89%30.12 "Hg7 mi
6:52 AM42 °FFog.No wind89%30.11 "Hg6 mi
5:52 AM43 °FPassing clouds.3 mph89%30.11 "Hg7 mi
4:52 AM43 °FOvercast.No wind86%30.11 "Hg8 mi
3:52 AM42 °FPassing clouds.No wind89%30.11 "Hg8 mi
2:52 AM43 °FPassing clouds.No wind86%30.11 "Hg8 mi
1:52 AM46 °FOvercast.No wind83%30.11 "Hg9 mi
12:52 AM44 °FOvercast.No wind82%30.10 "Hg10 mi
11:52 PM
Oct 23
47 °FOvercast.No wind77%30.11 "Hg10 mi
10:52 PM49 °FMostly cloudy.No wind71%30.11 "Hg10 mi
9:52 PM45 °FPassing clouds.3 mph82%30.13 "Hg10 mi
8:52 PM49 °FPassing clouds.No wind74%30.14 "Hg10 mi
7:52 PM50 °FPassing clouds.No wind68%30.14 "Hg10 mi
6:52 PM57 °FBroken clouds.3 mph49%30.13 "Hg10 mi
5:52 PM59 °FPartly sunny.No wind48%30.13 "Hg10 mi
4:52 PM59 °FPartly sunny.No wind46%30.13 "Hg10 mi
3:52 PM61 °FScattered clouds.No wind44%30.14 "Hg10 mi
1:52 PM58 °FScattered clouds.No wind50%30.19 "Hg10 mi
12:52 PM56 °FScattered clouds.No wind55%30.22 "Hg10 mi
Weather by CustomWeather, © 2014

See weather overviewHow to use our weather pages